Regional Weather Roundup
Issued by NWS Midland/Odessa, TX

Skip options and go directly to product.
Home | Oldest Version | Next Version | Current Version | All | Text Only | Save Text | Print | Product List | Glossary On

Skip product version selection by date and time.   
257
ASUS44 KMAF 290701
RWRMAF
MIDLAND AREA WEATHER ROUNDUP
NATIONAL WEATHER SERVICE MIDLAND TX
200 AM CDT SUN MAR 29 2015

...IN SOUTHWEST TEXAS AND SOUTHEAST NEW MEXICO...

CITY           SKY/WX    TMP DP  RH WIND       PRES   REMARKS
ALPINE         CLEAR     51  26  37 SW6       30.19S
ANDREWS        FAIR      63  39  41 SW15G21   30.03S
ARTESIA        CLEAR     63  21  20 W16       30.04S
BIG SPRING     CLEAR     61  38  41 SE10      30.03S
CARLSBAD       CLEAR     59  28  30 CALM      30.01S
DRYDEN           N/A     62  41  46 N7        30.02S
FORT STOCKTON  CLEAR     59  38  45 S10       30.04S
GUAD PASS      CLEAR     65  12  12 SW9       30.20R
HOBBS          CLEAR     57  23  26 S8        30.05R
MARFA          CLEAR     46  27  46 NE3       30.18F
MIDLAND AIRPK  CLEAR     66  39  37 S10       30.02F
MIDLAND INTL   CLEAR     64  39  39 S12       30.02S
ODESSA         CLEAR     66  35  31 S16       30.03R
PECOS          CLEAR     52  38  58 SW9       30.00S
PRESIDIO       FAIR      65  31  27 N5        30.06S
SEMINOLE       CLEAR     56  32  40 SW14      30.04S
SNYDER         CLEAR     63  39  40 S10       30.02S
WINK           CLEAR     55  40  56 E6        30.00S
$$
...OTHER STATIONS IN TEXAS...

CITY           SKY/WX    TMP DP  RH WIND       PRES   REMARKS
ABILENE        CLEAR     68  39  34 SW18G25   29.99R
AMARILLO       CLEAR     58  33  39 S12       29.99S
AUSTIN         CLEAR     57  51  80 SW8       30.07S
BROWNSVILLE    CLEAR     64  61  90 S10       30.14F
CORPUS CHRISTI CLEAR     62  60  93 S12       30.11F
DALLAS FTW     CLEAR     64  46  52 SE12G21   30.01R
DEL RIO        CLEAR     65  43  44 E8        30.04R
EL PASO        CLEAR     77   4   6 W10       30.09R
HOUSTON INT    CLEAR     63  60  90 S7        30.11S
LUBBOCK        CLEAR     54  39  57 SE9       30.00F
SAN ANGELO     CLEAR     65  40  39 S13       30.01R
SAN ANTONIO    CLEAR     63  52  67 S10       30.10S
WACO           CLEAR     54  46  74 SE8       30.03R
WICHITA FALLS  NOT AVBL
$$
...OTHER LOCATIONS IN NEW MEXICO...

CITY           SKY/WX    TMP DP  RH WIND       PRES   REMARKS
ALAMAGORDO     PTCLDY    61  10  13 S12       30.09S
ALBUQUERQUE    CLEAR     55  15  20 SE5       30.15S
CANNON AFB     NOT AVBL
CLOVIS         CLEAR     54  28  37 S8        30.04S
HOLLOMAN AFB   PTCLDY    60  10  14 S8        30.07S
ROSWELL        CLEAR     66  21  18 W13       30.03S
RUIDOSO        CLEAR     55  12  18 NW6       30.26S
SANTA FE       CLEAR     52  13  21 CALM      30.18S
TRUTH OR CONSE CLEAR     66   2   8 NW10      30.14R
TUCUMCARI      CLEAR     55  25  31 SW5       29.99R
$$

USA.gov is the U.S. government's official web portal to all federal, state and local government web resources and services.